FDX008 ENZV-ENBR

Flight info

Callsign FDX008
Flight time 0h 21m
Altitude 16000
Route ALUVA
Aircraft MD11/H-SDE1E2E3FGHIJ2J3J4J5M1RWXY/LB1D1

Departure

Time 2026-04-27 17:44
Airport Stavanger Airport, Sola (ENZV)

Arrival

Time 2026-04-27 18:05
Airport Bergen Airport, Flesland (ENBR)
Time Latitude Longitude Altitude Speed Heading
2026-04-27 17:23 58.88491 5.63242 38 ft 0 kts 62°
2026-04-27 17:35 58.88494 5.63251 38 ft 1 kts 62°
2026-04-27 17:35 58.88499 5.63269 38 ft 0 kts 63°
2026-04-27 17:36 58.88500 5.63273 38 ft 0 kts 63°
2026-04-27 17:36 58.88500 5.63274 38 ft 0 kts 63°
2026-04-27 17:37 58.88502 5.63280 38 ft 1 kts 63°
2026-04-27 17:37 58.88507 5.63301 38 ft 2 kts 69°
2026-04-27 17:37 58.88511 5.63340 38 ft 3 kts 86°
2026-04-27 17:38 58.88501 5.63395 38 ft 5 kts 132°
2026-04-27 17:38 58.88457 5.63427 38 ft 8 kts 175°
2026-04-27 17:38 58.88389 5.63427 38 ft 11 kts 180°
2026-04-27 17:38 58.88298 5.63430 37 ft 14 kts 179°
2026-04-27 17:39 58.88179 5.63435 35 ft 19 kts 179°
2026-04-27 17:39 58.88084 5.63437 34 ft 7 kts 180°
2026-04-27 17:39 58.88025 5.63427 34 ft 9 kts 193°
2026-04-27 17:39 58.87960 5.63380 34 ft 10 kts 205°
2026-04-27 17:40 58.87881 5.63312 31 ft 14 kts 204°
2026-04-27 17:40 58.87777 5.63288 31 ft 16 kts 180°
2026-04-27 17:40 58.87654 5.63291 31 ft 19 kts 180°
2026-04-27 17:40 58.87524 5.63293 31 ft 21 kts 180°
2026-04-27 17:41 58.87369 5.63295 31 ft 22 kts 180°
2026-04-27 17:41 58.87206 5.63301 31 ft 24 kts 179°
2026-04-27 17:41 58.87089 5.63307 32 ft 11 kts 178°
2026-04-27 17:41 58.87017 5.63351 34 ft 10 kts 139°
2026-04-27 17:42 58.86994 5.63481 34 ft 11 kts 78°
2026-04-27 17:42 58.87026 5.63612 36 ft 10 kts 62°
2026-04-27 17:42 58.87059 5.63736 36 ft 11 kts 62°
2026-04-27 17:42 58.87126 5.63803 37 ft 11 kts 359°
2026-04-27 17:43 58.87235 5.63791 36 ft 21 kts 359°
2026-04-27 17:43 58.87589 5.63783 34 ft 85 kts 359°
2026-04-27 17:43 58.88406 5.63757 35 ft 148 kts 359°
2026-04-27 17:43 58.89594 5.63731 141 ft 183 kts 358°
2026-04-27 17:44 58.90773 5.63690 932 ft 172 kts 359°
2026-04-27 17:44 58.91970 5.63699 1602 ft 171 kts
2026-04-27 17:44 58.93178 5.63762 2084 ft 184 kts
2026-04-27 17:44 58.94519 5.63868 2462 ft 206 kts
2026-04-27 17:45 58.96003 5.63983 3007 ft 223 kts
2026-04-27 17:45 58.97590 5.64082 3586 ft 237 kts
2026-04-27 17:45 58.99245 5.63516 4203 ft 250 kts 332°
2026-04-27 17:45 59.00595 5.61438 5037 ft 257 kts 318°
2026-04-27 17:46 59.01817 5.58840 5637 ft 269 kts 314°
2026-04-27 17:46 59.03034 5.56101 5819 ft 267 kts 315°
2026-04-27 17:46 59.04292 5.53507 5961 ft 263 kts 318°
2026-04-27 17:46 59.05623 5.51060 6023 ft 268 kts 321°
2026-04-27 17:47 59.07047 5.48668 5999 ft 271 kts 322°
2026-04-27 17:47 59.08002 5.47128 6618 ft 268 kts 323°
2026-04-27 17:47 59.09885 5.44118 7937 ft 271 kts 323°
2026-04-27 17:47 59.11343 5.41780 8844 ft 276 kts 323°
2026-04-27 17:48 59.12810 5.39405 9732 ft 280 kts 322°
2026-04-27 17:48 59.14315 5.36958 10512 ft 287 kts 323°
2026-04-27 17:48 59.15882 5.34410 10983 ft 306 kts 322°
2026-04-27 17:48 59.17587 5.31653 11092 ft 334 kts 322°
2026-04-27 17:49 59.19430 5.28657 11184 ft 361 kts 322°
2026-04-27 17:49 59.21414 5.25451 11266 ft 383 kts 322°
2026-04-27 17:49 59.23505 5.22090 11707 ft 394 kts 322°
2026-04-27 17:49 59.25603 5.18678 12260 ft 400 kts 322°
2026-04-27 17:50 59.27743 5.15201 12910 ft 405 kts 322°
2026-04-27 17:50 59.32067 5.08233 14723 ft 397 kts 322°
2026-04-27 17:50 59.34125 5.04941 15675 ft 379 kts 323°
2026-04-27 17:51 59.36118 5.01734 16125 ft 366 kts 323°
2026-04-27 17:51 59.38154 4.98926 16265 ft 349 kts 333°
2026-04-27 17:51 59.40337 4.97002 16149 ft 342 kts 344°
2026-04-27 17:51 59.42629 4.96048 15692 ft 338 kts 355°
2026-04-27 17:52 59.44914 4.95682 15325 ft 329 kts 358°
2026-04-27 17:52 59.47189 4.95473 14980 ft 320 kts 358°
2026-04-27 17:52 59.49365 4.95254 14669 ft 313 kts 358°
2026-04-27 17:52 59.51526 4.94962 14335 ft 311 kts 357°
2026-04-27 17:53 59.53651 4.94857 13918 ft 307 kts
2026-04-27 17:53 59.55744 4.95542 13603 ft 303 kts 13°
2026-04-27 17:53 59.57765 4.96486 13262 ft 302 kts 14°
2026-04-27 17:53 59.59814 4.97447 12903 ft 300 kts 13°
2026-04-27 17:54 59.61827 4.98315 12535 ft 299 kts 12°
2026-04-27 17:54 59.63862 4.99118 12174 ft 298 kts 11°
2026-04-27 17:54 59.65883 4.99879 11805 ft 297 kts 11°
2026-04-27 17:54 59.67910 5.00633 11426 ft 297 kts 11°
2026-04-27 17:55 59.69931 5.01393 11079 ft 296 kts 11°
2026-04-27 17:55 59.71939 5.02167 10713 ft 295 kts 11°
2026-04-27 17:55 59.73929 5.02944 10333 ft 295 kts 11°
2026-04-27 17:55 59.75954 5.03726 9952 ft 294 kts 11°
2026-04-27 17:56 59.77948 5.04502 9544 ft 294 kts 13°
2026-04-27 17:56 59.79872 5.05638 9066 ft 287 kts 20°
2026-04-27 17:56 59.81696 5.07008 8768 ft 275 kts 21°
2026-04-27 17:56 59.83423 5.08384 8582 ft 262 kts 21°
2026-04-27 17:57 59.85098 5.09683 8502 ft 261 kts 20°
2026-04-27 17:57 59.86800 5.10931 8161 ft 264 kts 19°
2026-04-27 17:57 59.88525 5.12151 7751 ft 259 kts 19°
2026-04-27 17:57 59.90194 5.13314 7410 ft 253 kts 19°
2026-04-27 17:58 59.91809 5.14441 7091 ft 246 kts 19°
2026-04-27 17:58 59.93405 5.15565 6768 ft 240 kts 19°
2026-04-27 17:58 59.94949 5.16667 6437 ft 234 kts 19°
2026-04-27 17:58 59.96464 5.17754 6118 ft 232 kts 19°
2026-04-27 17:59 59.97981 5.18837 5759 ft 233 kts 19°
2026-04-27 17:59 59.99495 5.19909 5431 ft 233 kts 19°
2026-04-27 17:59 60.01038 5.20999 5081 ft 234 kts 19°
2026-04-27 17:59 60.02314 5.21904 4802 ft 227 kts 19°
2026-04-27 18:00 60.03760 5.22934 4519 ft 217 kts 19°
2026-04-27 18:00 60.05145 5.23925 4303 ft 206 kts 19°
2026-04-27 18:00 60.06476 5.24875 4064 ft 200 kts 19°
2026-04-27 18:00 60.07786 5.25803 3858 ft 200 kts 19°
2026-04-27 18:01 60.09097 5.26730 3605 ft 203 kts 19°
2026-04-27 18:01 60.10433 5.27585 3506 ft 200 kts
2026-04-27 18:01 60.11806 5.27674 3396 ft 204 kts 353°
2026-04-27 18:01 60.13196 5.27269 3204 ft 198 kts 351°
2026-04-27 18:02 60.14565 5.26775 2898 ft 204 kts 350°
2026-04-27 18:02 60.15951 5.26251 2667 ft 198 kts 350°
2026-04-27 18:02 60.17260 5.25793 2324 ft 187 kts 351°
2026-04-27 18:02 60.18505 5.25382 2105 ft 175 kts 351°
2026-04-27 18:03 60.19676 5.25005 1891 ft 169 kts 351°
2026-04-27 18:03 60.20833 5.24636 1698 ft 169 kts 351°
2026-04-27 18:03 60.21997 5.24261 1451 ft 171 kts 351°
2026-04-27 18:03 60.23148 5.23885 1185 ft 166 kts 350°
2026-04-27 18:04 60.24276 5.23510 1039 ft 171 kts 350°
2026-04-27 18:04 60.25481 5.23101 718 ft 173 kts 349°
2026-04-27 18:04 60.26631 5.22702 461 ft 166 kts 350°
2026-04-27 18:04 60.27760 5.22343 238 ft 165 kts 349°
2026-04-27 18:05 60.28883 5.21954 167 ft 158 kts 353°
2026-04-27 18:05 60.29835 5.21647 149 ft 111 kts 350°
2026-04-27 18:05 60.30280 5.21497 163 ft 29 kts 351°
2026-04-27 18:05 60.30375 5.21471 166 ft 7 kts
2026-04-27 18:06 60.30411 5.21513 169 ft 4 kts 50°
2026-04-27 18:06 60.30423 5.21559 170 ft 3 kts 68°
2026-04-27 18:06 60.30432 5.21610 172 ft 4 kts 73°
2026-04-27 18:06 60.30440 5.21692 173 ft 7 kts 89°
2026-04-27 18:07 60.30390 5.21781 171 ft 13 kts 166°
2026-04-27 18:07 60.30280 5.21818 167 ft 18 kts 171°
2026-04-27 18:07 60.30138 5.21868 161 ft 23 kts 171°
2026-04-27 18:07 60.29964 5.21924 156 ft 26 kts 171°
2026-04-27 18:08 60.29774 5.21989 154 ft 27 kts 170°
2026-04-27 18:08 60.29606 5.22046 155 ft 17 kts 171°
2026-04-27 18:08 60.29506 5.22079 157 ft 13 kts 170°
2026-04-27 18:08 60.29416 5.22110 160 ft 12 kts 170°
2026-04-27 18:09 60.29329 5.22140 162 ft 12 kts 170°
2026-04-27 18:09 60.29236 5.22171 164 ft 14 kts 171°
2026-04-27 18:09 60.29127 5.22205 167 ft 16 kts 171°
2026-04-27 18:09 60.29004 5.22248 171 ft 19 kts 169°
2026-04-27 18:10 60.28864 5.22296 172 ft 21 kts 170°
2026-04-27 18:10 60.28712 5.22346 170 ft 21 kts 171°
2026-04-27 18:10 60.28669 5.22381 170 ft 2 kts 85°
2026-04-27 18:10 60.28671 5.22414 171 ft 2 kts 82°
2026-04-27 18:11 60.28670 5.22443 171 ft 2 kts 110°
2026-04-27 18:11 60.28651 5.22477 171 ft 6 kts 153°
2026-04-27 18:11 60.28609 5.22515 170 ft 4 kts 109°
2026-04-27 18:11 60.28610 5.22574 171 ft 4 kts 81°
2026-04-27 18:12 60.28615 5.22628 171 ft 0 kts 79°